Wind_Speed
34 33 32 30 31 30 27 27 27 25 24 24 23 23 20 20 20 19 18 17 16 16 17 18 18 18 19 19 20 22 24 25 25 26 27 27 28 28 30 31 30 31 31
32 32 32 31 29 29 27 25 24 24 23 24 24 23 22 22 21 20 19 18 17 17 18 19 20 20 20 20 21 21 22 23 24 24 24 25 26 28 29 30 31 31 31
30 29 28 28 28 29 29 26 22 24 23 23 23 23 24 23 22 21 20 20 19 19 20 20 21 21 21 21 22 22 23 24 24 25 26 27 28 29 30 31 32 33 34
29 29 29 28 28 28 27 25 23 23 23 22 23 24 25 24 24 23 22 21 20 21 22 22 22 22 23 23 23 24 26 27 27 28 29 30 30 31 32 34 35 37 37
29 29 30 30 29 29 27 25 24 23 24 23 23 24 25 25 25 24 23 23 23 23 24 24 24 24 23 24 25 27 28 29 30 31 32 33 33 34 35 37 38 39 40
29 29 29 29 28 27 27 26 25 25 25 24 23 24 25 25 25 25 24 25 25 25 25 25 26 26 25 27 27 29 30 32 33 34 35 36 37 37 38 39 41 42 43
28 28 28 27 27 27 27 27 28 26 26 26 26 26 26 27 28 26 26 26 26 26 26 26 27 28 29 30 31 32 33 34 35 37 38 38 39 39 40 41 42 44 44
27 28 29 29 28 27 28 28 28 28 27 28 28 28 27 27 27 26 26 27 28 28 28 29 30 31 32 33 34 35 36 37 38 39 39 39 40 41 41 42 43 45 46
26 27 28 28 28 28 28 28 28 29 29 29 29 29 29 29 28 29 29 29 30 30 31 32 33 33 33 35 36 37 38 39 39 39 40 40 40 42 42 43 45 46 47
26 26 26 27 28 28 29 29 29 29 30 30 30 30 30 30 30 30 31 32 32 32 33 33 33 33 34 35 37 38 39 39 40 40 41 41 42 43 44 45 46 47 47
25 25 25 26 26 27 27 28 28 29 30 30 31 31 31 31 31 31 32 32 33 33 33 34 35 35 36 37 38 38 39 40 40 40 41 42 43 44 45 45 46 46 47
24 24 25 26 26 27 28 28 28 29 30 30 31 31 32 32 32 33 33 34 34 35 35 36 36 37 37 38 38 38 39 40 40 40 41 42 43 43 44 44 45 45 46
22 23 24 25 25 26 27 28 28 29 29 30 31 32 32 33 33 34 34 35 35 36 37 37 37 37 37 37 37 37 37 39 39 39 40 41 41 42 42 42 42 42 42
19 21 22 24 25 26 27 28 28 29 30 31 32 33 33 33 34 34 35 35 36 36 36 36 36 35 36 36 36 36 37 37 37 38 38 39 39 39 39 39 38 38 38
18 20 22 23 24 26 27 28 29 29 30 30 31 31 32 32 33 33 34 34 35 35 35 35 35 34 34 35 35 35 35 35 35 35 36 36 36 35 35 36 36 36 36
17 19 21 23 24 25 26 27 27 28 28 28 28 29 30 31 31 32 32 33 33 34 34 34 33 33 33 33 34 33 32 32 33 33 32 32 33 33 33 34 33 33 33
18 19 20 21 23 24 25 26 26 26 27 27 28 28 28 29 29 30 31 31 31 32 32 31 31 31 31 31 31 31 31 31 30 30 30 30 30 31 31 31 31 30 30
19 19 20 21 21 22 23 23 24 25 25 26 27 28 28 29 29 29 29 29 29 29 28 28 28 29 29 29 29 28 28 28 28 28 28 28 28 28 28 28 27 27 27
18 19 19 19 20 20 20 21 21 22 23 24 25 26 26 27 27 27 27 27 26 26 26 26 26 26 26 26 26 25 25 25 25 25 25 25 25 25 25 25 25 25 24
17 17 18 18 19 19 20 20 20 20 21 22 22 23 23 23 23 23 23 23 23 24 24 24 24 24 24 24 23 22 22 22 23 23 22 22 22 22 22 22 23 23 23
15 17 17 17 18 18 19 19 19 19 20 20 21 21 21 21 21 22 22 22 23 23 23 23 23 22 21 20 20 20 20 20 20 20 20 20 20 21 21 21 21 21 21
14 15 16 16 17 18 18 19 19 19 19 19 19 20 20 20 21 20 20 21 21 21 21 20 20 20 19 19 18 18 19 19 19 19 18 19 19 19 19 19 19 19 19
14 15 15 15 16 16 16 16 17 17 18 18 18 19 18 19 19 19 19 19 19 19 19 18 18 17 17 17 17 18 18 17 17 17 17 18 18 18 18 18 18 18 18
12 13 13 13 14 14 14 14 15 15 16 16 17 17 17 17 17 17 17 17 17 16 16 16 16 16 15 15 16 16 16 15 15 15 16 16 16 17 17 16 16 17 17
11 11 11 11 12 12 13 13 14 15 15 14 14 14 15 15 15 15 14 14 13 14 14 14 14 13 13 13 13 13 13 12 13 13 13 14 15 14 15 15 15 16 16
10 10 9 10 10 10 10 11 11 11 11 11 11 12 13 13 13 12 12 12 12 12 12 11 11 11 11 11 11 11 10 11 11 12 12 13 13 14 14 14 15 15 15
Wind_Direction
247 251 255 260 261 262 258 251 247 244 239 233 234 236 236 238 238 240 242 243 246 252 257 263 268 274 278 280 284 286 286 287 287 287 287 288 288 285 283 281 280 281 280
246 250 254 258 260 263 265 258 247 249 243 238 238 239 237 238 243 247 246 245 250 259 260 265 270 276 280 282 285 288 286 287 287 289 288 288 288 289 285 281 281 281 281
247 251 256 259 259 264 266 264 254 247 247 246 245 247 241 241 245 250 251 253 255 262 265 267 273 275 278 281 283 285 286 288 288 286 287 287 286 286 285 283 282 282 280
247 252 255 256 257 260 265 262 259 253 251 253 253 255 249 247 249 251 256 258 262 268 273 275 278 279 281 283 284 285 286 287 289 288 287 287 287 284 283 283 283 282 282
248 252 254 254 253 256 262 263 262 260 258 259 258 259 256 256 257 256 260 263 265 271 276 277 278 280 283 284 285 287 287 287 287 287 288 288 287 285 284 284 284 284 284
250 252 256 253 252 257 260 263 264 263 265 265 267 266 265 264 265 263 262 264 267 271 275 277 277 279 282 284 285 287 288 288 288 287 287 287 286 286 285 284 283 285 284
252 255 257 256 255 258 261 265 266 266 267 269 270 270 271 272 270 269 270 271 269 272 276 278 279 281 283 285 286 288 289 289 289 288 287 287 286 286 285 285 285 286 285
251 254 257 258 258 260 262 265 267 268 270 270 270 272 273 274 272 272 274 276 275 276 281 283 283 283 284 285 287 287 288 288 289 289 288 287 287 287 286 286 286 286 286
251 253 256 259 261 263 264 266 267 269 270 271 271 272 273 274 275 275 277 278 279 280 283 285 284 284 284 285 286 287 287 288 288 287 286 285 286 286 285 285 286 287 287
251 253 257 259 259 260 262 265 267 267 268 269 270 270 271 272 274 276 278 279 280 281 283 283 284 284 284 285 286 287 286 286 286 287 286 286 286 286 287 288 288 288 288
254 255 256 257 258 258 260 263 265 266 267 269 269 271 272 274 275 276 278 279 280 282 283 283 286 285 286 287 287 286 286 286 286 287 287 287 287 287 288 289 289 289 290
256 258 258 259 259 260 263 265 266 266 267 269 270 271 273 274 275 276 278 278 278 281 283 284 285 287 287 287 287 288 287 287 287 287 287 288 288 288 289 290 290 290 291
257 258 260 260 261 263 265 267 267 268 269 270 271 272 273 274 276 277 278 279 280 283 284 285 287 287 287 287 288 288 288 289 289 289 288 289 290 290 291 291 291 292 293
262 262 262 262 263 264 265 266 267 268 268 270 271 272 274 275 276 278 279 280 282 284 285 286 287 288 288 288 288 289 290 289 289 289 289 290 291 291 291 291 292 293 294
267 266 266 265 266 266 265 266 267 269 270 271 271 272 274 275 277 278 279 280 282 284 285 286 287 288 289 287 288 290 290 290 290 291 291 292 292 292 293 293 294 295 296
274 271 269 269 270 270 269 269 269 270 271 272 273 274 275 276 277 278 279 281 283 283 284 286 286 286 288 288 288 289 289 291 292 293 293 294 294 293 295 296 296 297 298
279 277 274 271 271 270 270 269 268 269 270 272 272 274 275 277 279 280 281 282 284 284 284 285 285 286 287 288 287 289 290 292 293 294 294 294 294 296 297 297 299 300 301
286 284 279 274 272 272 272 271 270 269 270 271 272 275 277 279 280 280 280 282 283 284 284 284 284 285 286 287 288 290 292 293 294 294 295 295 296 298 299 301 302 303 304
285 283 282 278 276 276 274 274 271 269 270 270 271 275 278 278 277 277 278 279 281 281 282 282 284 285 287 288 290 292 294 295 296 297 298 299 300 302 304 305 306 308 309
283 283 283 282 281 280 277 277 274 272 272 273 275 277 277 278 278 278 279 281 281 281 282 283 284 285 287 289 292 293 295 297 300 301 302 303 305 308 310 311 312 313 314
286 284 281 280 280 278 277 276 276 276 276 277 278 279 280 280 280 280 281 281 283 284 284 285 286 287 289 290 292 294 296 299 301 302 304 306 309 311 313 314 316 317 318
290 287 283 282 282 281 277 276 276 278 278 278 279 280 280 280 281 282 283 284 284 284 285 286 288 289 291 293 294 295 297 300 302 304 306 309 311 314 316 317 319 320 322
298 292 288 287 284 282 280 278 276 277 277 278 279 280 280 280 281 283 285 286 286 286 287 287 289 291 293 294 295 296 298 301 303 306 310 313 316 318 320 322 323 325 326
309 304 298 293 290 286 283 281 281 281 280 280 279 280 281 282 285 287 289 289 289 288 288 290 290 292 293 295 298 300 302 302 304 308 313 317 319 322 324 325 327 328 329
317 313 307 302 296 291 291 288 284 283 283 282 282 283 284 287 288 288 289 290 292 292 292 292 293 294 296 299 301 304 305 306 310 315 318 321 323 326 327 328 329 330 331
331 325 318 310 303 298 295 292 289 288 289 290 290 291 291 291 290 290 291 292 295 296 297 296 296 298 302 304 306 307 309 313 318 321 324 326 327 328 328 329 331 332 334
Height
5831 5833 5834 5835 5837 5837 5838 5838 5838 5838 5840 5843 5844 5845 5847 5848 5848 5849 5849 5850 5851 5851 5852 5853 5853 5853 5853 5852 5851 5850 5849 5847 5845 5844 5842 5840 5838 5837 5835 5833 5832 5831 5829
5826 5828 5829 5829 5831 5831 5830 5831 5830 5832 5834 5837 5838 5839 5840 5842 5843 5843 5844 5844 5845 5845 5845 5846 5847 5847 5846 5845 5844 5843 5842 5841 5839 5837 5835 5834 5833 5830 5828 5826 5825 5823 5822
5821 5823 5825 5825 5827 5828 5827 5825 5825 5827 5828 5829 5831 5832 5833 5835 5836 5837 5838 5839 5839 5839 5839 5840 5840 5840 5839 5839 5838 5837 5836 5834 5832 5830 5829 5827 5825 5823 5821 5819 5817 5815 5813
5815 5817 5819 5820 5821 5822 5822 5821 5820 5822 5823 5825 5827 5827 5827 5828 5829 5830 5831 5832 5832 5833 5833 5833 5833 5833 5832 5832 5831 5830 5829 5827 5825 5824 5822 5820 5818 5816 5814 5812 5809 5806 5804
5810 5811 5812 5813 5814 5816 5817 5818 5817 5817 5818 5819 5820 5820 5821 5822 5823 5823 5825 5826 5827 5827 5827 5827 5826 5826 5826 5825 5824 5823 5821 5820 5818 5816 5814 5812 5810 5807 5805 5803 5800 5797 5795
5803 5805 5805 5805 5807 5809 5811 5812 5812 5812 5813 5814 5814 5814 5815 5816 5817 5817 5818 5819 5820 5820 5820 5820 5820 5819 5818 5818 5816 5815 5813 5811 5809 5807 5805 5802 5800 5798 5795 5793 5790 5787 5784
5797 5798 5799 5800 5801 5803 5805 5806 5806 5806 5807 5808 5808 5808 5809 5810 5810 5811 5812 5812 5812 5813 5813 5812 5812 5812 5811 5809 5808 5806 5804 5802 5800 5798 5795 5793 5790 5788 5785 5782 5779 5776 5773
5791 5793 5794 5795 5796 5797 5798 5799 5800 5801 5801 5801 5802 5802 5803 5803 5804 5804 5804 5805 5805 5805 5805 5805 5804 5803 5802 5800 5798 5797 5795 5792 5790 5787 5785 5782 5780 5777 5774 5771 5768 5765 5761
5786 5787 5788 5789 5790 5791 5791 5792 5793 5794 5795 5795 5795 5796 5796 5797 5797 5797 5797 5797 5797 5797 5797 5796 5795 5794 5792 5790 5789 5787 5785 5782 5779 5777 5774 5771 5769 5766 5763 5760 5757 5754 5749
5780 5781 5782 5783 5784 5784 5785 5786 5786 5787 5787 5788 5788 5789 5789 5789 5789 5789 5789 5789 5788 5788 5787 5786 5785 5784 5782 5780 5779 5776 5774 5772 5769 5766 5763 5761 5758 5755 5752 5748 5745 5741 5737
5774 5775 5776 5777 5778 5778 5778 5779 5780 5780 5781 5781 5781 5781 5781 5781 5781 5781 5781 5780 5780 5779 5778 5777 5776 5774 5772 5770 5768 5766 5763 5761 5758 5755 5753 5750 5746 5743 5740 5736 5733 5729 5725
5768 5769 5770 5771 5771 5771 5772 5772 5772 5773 5773 5773 5773 5773 5773 5773 5773 5773 5772 5772 5771 5770 5768 5767 5766 5764 5762 5760 5757 5755 5753 5750 5747 5744 5741 5738 5735 5731 5728 5724 5720 5717 5712
5762 5763 5764 5764 5765 5765 5765 5764 5764 5765 5765 5765 5765 5765 5765 5765 5764 5764 5763 5762 5761 5760 5759 5757 5756 5754 5752 5749 5747 5745 5742 5739 5736 5733 5730 5727 5724 5720 5717 5713 5709 5705 5701
5756 5756 5757 5757 5758 5757 5757 5757 5757 5757 5757 5757 5757 5757 5756 5756 5756 5755 5754 5753 5752 5751 5749 5748 5746 5744 5742 5739 5737 5734 5732 5729 5726 5723 5720 5716 5713 5710 5706 5702 5699 5695 5690
5750 5750 5750 5750 5750 5750 5750 5750 5750 5749 5749 5749 5749 5748 5748 5748 5747 5746 5745 5744 5743 5742 5740 5738 5736 5734 5732 5730 5727 5725 5722 5719 5716 5713 5710 5706 5703 5699 5696 5693 5689 5685 5681
5745 5745 5744 5743 5743 5743 5743 5742 5742 5742 5741 5741 5741 5740 5740 5739 5739 5738 5737 5736 5734 5733 5731 5729 5727 5725 5723 5721 5718 5716 5713 5710 5707 5704 5700 5697 5694 5690 5687 5684 5680 5676 5672
5739 5738 5737 5737 5736 5736 5736 5735 5735 5734 5734 5734 5733 5732 5732 5731 5731 5730 5729 5727 5726 5724 5722 5720 5719 5717 5714 5712 5710 5707 5705 5702 5698 5695 5692 5689 5686 5682 5679 5676 5672 5668 5664
5733 5732 5731 5731 5730 5729 5729 5728 5727 5727 5727 5726 5726 5725 5725 5724 5723 5722 5721 5719 5718 5716 5714 5712 5710 5708 5706 5704 5702 5699 5696 5694 5691 5688 5684 5681 5678 5675 5671 5668 5665 5661 5658
5727 5726 5725 5724 5723 5723 5722 5721 5721 5720 5720 5719 5719 5718 5718 5717 5716 5714 5713 5712 5710 5708 5706 5705 5703 5701 5699 5697 5694 5692 5689 5687 5684 5681 5678 5675 5671 5668 5665 5662 5658 5655 5651
5722 5721 5720 5719 5717 5717 5716 5715 5715 5714 5713 5713 5712 5711 5711 5710 5708 5707 5706 5705 5703 5701 5700 5698 5696 5694 5692 5690 5688 5685 5683 5680 5678 5675 5672 5669 5666 5663 5659 5656 5653 5649 5646
5717 5716 5715 5714 5712 5711 5710 5710 5709 5708 5707 5707 5706 5705 5704 5703 5702 5701 5700 5698 5697 5695 5693 5691 5689 5688 5686 5684 5682 5679 5677 5675 5672 5670 5667 5664 5661 5658 5655 5652 5649 5645 5641
5713 5711 5710 5708 5707 5706 5705 5704 5703 5702 5701 5701 5700 5699 5698 5697 5696 5694 5693 5692 5690 5688 5687 5685 5683 5682 5680 5678 5676 5674 5672 5670 5668 5665 5663 5660 5657 5654 5651 5648 5645 5641 5638
5709 5707 5705 5704 5702 5701 5700 5699 5698 5697 5696 5695 5694 5693 5692 5691 5690 5688 5687 5686 5684 5683 5681 5679 5678 5676 5675 5673 5671 5669 5667 5665 5663 5661 5659 5656 5654 5651 5648 5645 5641 5638 5635
5705 5703 5701 5699 5697 5696 5695 5694 5693 5692 5691 5690 5689 5688 5687 5686 5684 5683 5682 5680 5679 5677 5676 5675 5673 5672 5670 5669 5667 5665 5664 5662 5660 5658 5655 5653 5650 5648 5645 5642 5639 5636 5632
5701 5699 5697 5695 5694 5692 5691 5690 5688 5687 5686 5685 5684 5683 5682 5681 5680 5678 5677 5675 5674 5673 5672 5671 5669 5668 5667 5665 5664 5662 5660 5659 5657 5655 5652 5650 5648 5645 5642 5639 5636 5633 5630
5699 5696 5694 5692 5690 5689 5687 5686 5684 5683 5682 5681 5680 5679 5678 5676 5675 5674 5673 5672 5671 5669 5668 5667 5666 5665 5664 5662 5661 5659 5658 5656 5654 5652 5650 5648 5645 5642 5640 5637 5634 5631 5628